www.pogodaiklimat.ru

Архив погоды в Кирове (Кировская область, Россия)

Время
(UTC), дата
00 24.11
03 24.11
06 24.11
09 24.11
12 24.11
15 24.11
18 24.11
21 24.11
00 25.11
03 25.11
06 25.11
09 25.11
12 25.11
15 25.11
18 25.11
21 25.11
00 26.11
03 26.11
06 26.11
09 26.11
12 26.11
15 26.11
18 26.11
21 26.11
00 27.11
03 27.11
06 27.11
09 27.11
12 27.11
15 27.11
18 27.11
21 27.11
00 28.11
03 28.11
06 28.11
09 28.11
12 28.11
15 28.11
18 28.11
21 28.11
00 29.11
03 29.11
06 29.11
09 29.11
12 29.11
15 29.11
18 29.11
21 29.11
00 30.11
03 30.11
06 30.11
09 30.11
12 30.11
15 30.11
18 30.11
21 30.11
Ветер
(напр.,м/с)
Видим. Явления Облачность Т
(С)
Тd
(С)
f
(%)
Тe
(С)
Тes
(С)
Комфортность P
(гПа)
Po
(гПа)
Тmin
(С)
Tmax
(С)
R
(мм)
R24
(мм)
S
(см)
З 2-4
{7}
20 км {снег, метель} 5/0
[Ci fib]
-12.5 -13.9 89 -17 -17 прохладно 1011.1 990.3
З 1-3
{6}
4000 м слаб. снег {метель} 10/0
[Ac As Cs]
-12.3 -14.0 87 -15 -15 прохладно 1011.1 990.3 -13.4 0.2 12
ЮЗ 1-2
{5}
20 км в посл. час снег {метель} 10/0
[Ac As Ci]
-13.5 -15.1 88 -16 -16 прохладно 1011.8 991.0 -13.8
ЮЗ 1-2
{2}
10 км ледяные иглы {снег} 5/0
[Ac trans Cc]
-11.3 -13.2 86 -14 -13 по сезону 1011.2 990.5
Ю 1-2
{2}
10 км слаб. снег 10/0
[As trans]
-10.1 -11.8 87 -12 -12 по сезону 1010.4 989.8
Ю 1-2
{4}
10 км слаб. снег 10/10 600 м
[Sc]
-8.9 -10.5 88 -11 -11 по сезону 1009.2 988.7 -8.9 0.2
Ю 2-3
{4}
10 км слаб. снег 10/6 600 м
[Sc As trans]
-8.7 -10.1 90 -13 -13 по сезону 1007.6 987.2
ЮВ 2-5
{5}
20 км {снег} 10/10 600 м
[Sc]
-7.9 -9.2 90 -12 -12 по сезону 1005.2 985.0
Ю 3-5
{7}
20 км {снег} 10/6 600 м
[Sc As trans]
-7.9 -9.8 86 -14 -14 по сезону 1003.2 983.0
ЮВ 2-4
{6}
10 км слаб. снег 10/0
[As trans]
-9.7 -11.3 88 -14 -14 по сезону 1002.4 982.0 -9.7 0.3 12
ЮВ 2-4
{5}
4000 м слаб. ливневой снег 10/10 300 м
[Cb calv]
-9.5 -11.1 88 -14 -14 по сезону 1002.3 982.0 -10.5
штиль 0-1
{4}
500 м ливневой снег 10/10 300 м
[Cb calv]
-7.7 -9.8 85 -8 -8 по сезону 1003.4 983.2
З 1-3
{4}
4000 м слаб. ливневой снег 9/9 300 м
[Cb calv]
-7.5 -9.1 88 -10 -10 по сезону 1006.1 985.9
СЗ 1-3
{6}
20 км {ливн. снег} 9/9 300 м
[Cb calv]
-6.7 -8.7 86 -9 -9 по сезону 1009.5 989.2 -6.7 1
З 2-5
{5}
20 км {ливн. снег} 10/10 600 м
[Sc]
-6.1 -8.8 81 -10 -10 по сезону 1011.6 991.3
Ю 1-2
{6}
20 км 10/10 600 м
[Sc]
-6.0 -8.3 84 -8 -8 по сезону 1012.6 992.3
Ю 2-5
{5}
20 км 10/10 600 м
[Sc]
-5.4 -7.7 84 -10 -10 по сезону 1011.3 991.1
Ю 3-7
{9}
4000 м слаб. ливневой снег 10/10 300 м
[Cb calv]
-4.6 -6.1 89 -10 -10 по сезону 1008.4 988.3 -6.7 0.4 13
Ю 3-7
{7}
10 км слаб. снег {ливн. снег} 10/8 300 м
[Frnb As op]
-1.9 -3.3 90 -7 -7 по сезону 1006.8 986.9
ЮЗ 4-9
{10}
4000 м слаб. снег {метель} 10/8 300 м
[Frnb As op]
+0.2 -1.6 88 -5 -5 тепло 1005.3 985.6
ЮЗ 4-9
{10}
10 км слаб. снег {метель} 10/8 300 м
[Frnb As op]
+0.7 -1.8 83 -5 -5 по сезону 1005.3 985.7
ЮЗ 4-8
{9}
10 км слаб. снег 10/8 300 м
[Frnb As op]
+0.6 -2.7 79 -5 -5 по сезону 1005.6 985.9 +0.9 0.3
ЮЗ 3-8
{10}
10 км слаб. снег 10/6 300 м
[Frnb Ac As]
+0.3 -2.9 79 -4 -4 тепло 1005.8 986.1
ЮЗ 3-8
{9}
10 км слаб. снег 10/0
[Ac As]
+0.3 -1.8 86 -4 -4 тепло 1007.1 987.4
ЮЗ 4-8
{8}
10 км слаб. снег 10/0
[Ac As]
+0.9 -1.4 85 -4 -4 тепло 1008.6 988.9
ЮЗ 4-8
{9}
10 км слаб. снег 10/0
[Ac As]
+0.9 -1.0 87 -4 -4 тепло 1009.9 990.2 +0.2 0.1 13
ЮЗ 4-7
{8}
20 км {снег} 10/9 600 м
[Sc Ac As]
+1.0 -1.5 83 -4 -4 тепло 1012.0 992.3
ЮЗ 3-5
{8}
20 км 10/0
[Ac As]
+0.7 -1.3 86 -4 -4 тепло 1013.9 994.1
ЮЗ 2-5
{7}
20 км 10/0
[Ac As]
+0.4 -1.5 87 -3 -3 тепло 1015.1 995.3
Ю 2-5
{7}
10 км слаб. снег 10/0
[Ac As]
-0.5 -2.2 88 -4 -4 тепло 1015.6 995.7 +1.0 0.0
Ю 3-6
{6}
20 км {снег} 10/0
[Ac As]
-0.5 -2.7 85 -5 -5 по сезону 1015.3 995.4
Ю 2-4
{8}
20 км 10/0
[Ac As]
-1.0 -3.5 83 -5 -5 по сезону 1014.9 994.9
Ю 4-6
{7}
20 км 8/0
[Ac trans]
-0.4 -2.9 83 -6 -6 по сезону 1012.5 992.6
ЮВ 4-8
{10}
20 км 10/0
[Ac As Cs]
-0.4 -4.0 77 -6 -6 по сезону 1009.8 990.0 -1.2 0.0 12
Ю 4-8
{10}
4000 м слаб. снег {ливн. снег} 10/8 300 м
[Frnb As op]
-2.5 -4.4 87 -9 -9 по сезону 1009.4 989.5 -2.5
Ю 4-7
{9}
10 км слаб. ливневой снег 10/8 300 м
[Cb cap As op]
-2.7 -4.4 88 -9 -9 по сезону 1008.6 988.7
Ю 3-6
{8}
10 км слаб. снег {ливн. снег} 10/5 300 м
[Frnb As op]
-2.0 -3.1 92 -7 -7 по сезону 1008.2 988.3
Ю 3-6
{6}
20 км {ливн. снег, снег} 10/10 300 м
[St]
-1.1 -2.2 92 -6 -6 по сезону 1008.2 988.4 -0.4 3
Ю 2-5
{8}
20 км в посл. час зёрна {ливн. снег, снег} 10/10 100 м
[St]
+0.1 -0.3 97 -4 -4 по сезону 1008.7 989.0
ЮЗ 3-6
{7}
20 км 10/10 100 м
[St]
+0.8 +0.5 98 -4 -4 по сезону 1009.6 989.9
ЮЗ 2-5
{7}
10 км 10/10 100 м
[St]
+1.1 +0.8 98 -3 -3 тепло 1010.8 991.1
ЮЗ 2-6
{6}
4000 м дымка {морось} 10/10 100 м
[St]
+1.2 +1.0 99 -2 -2 тепло 1011.7 992.0 -1.1 0.1 12
ЮЗ 2-5
{5}
1000 м дымка {морось} 10/10 200 м
[St]
+1.3 +1.1 99 -2 -2 тепло 1013.0 993.3
Ю 2-3
{5}
20 км 10/10 200 м
[St]
+1.5 +0.8 95 -2 -2 тепло 1013.8 994.1
Ю 1-3
{3}
20 км 10/10 300 м
[Sc]
+1.4 +0.6 94 -1 -1 тепло 1013.7 993.9
ЮВ 2-4
{4}
20 км 10/10 300 м
[Sc]
+1.1 +0.7 97 -3 -3 по сезону 1012.5 992.7 +1.6 0.1
ЮВ 3-5
{6}
20 км 10/10 300 м
[Cb calv]
+0.7 +0.2 96 -4 -4 по сезону 1010.1 990.4
В 3-5
{6}
2000 м снег {морось} 10/10 100 м
[Frnb]
+0.2 0.0 99 -5 -5 по сезону 1006.3 986.7
ЮВ 3-4
{5}
2000 м снег {дождь} 10/10 100 м
[Frnb Ns]
+0.2 0.0 99 -5 -5 тепло 1003.0 983.3
ЮВ 3-6
{6}
4000 м слаб. дождь {снег} 10/10 100 м
[Frnb]
+0.8 +0.6 99 -4 -4 тепло 998.6 979.1 +0.1 8 11
ЮВ 4-8
{11}
2000 м дождь {снег} 10/10 200 м
[Frnb Ns]
+1.4 +0.8 96 -4 -4 тепло 993.1 973.8
ЮВ 5-9
{10}
4000 м слаб. ливневой снег 10/10 200 м
[Cb cap]
+1.7 +0.9 94 -4 -4 тепло 988.3 969.0
ЮВ 5-9
{11}
10 км слаб. дождь {ливн. дождь, снег} 10/9 300 м
[Frnb As op]
+1.1 +0.1 93 -5 -5 тепло 985.2 966.0
Ю 4-7
{10}
4000 м слаб. ливневой дождь 10/10 300 м
[Cb cap]
+1.1 +0.3 94 -4 -4 тепло 982.5 963.3 +1.9 8
Ю 3-6
{9}
10 км {ливн. дождь, дождь} 10/10 200 м
[St]
+2.1 +1.6 96 -2 -2 тепло 983.2 964.2
Ю 4-7
{10}
10 км слаб. дождь 10/10 300 м
[Frnb]
+2.6 +1.3 91 -2 -2 тепло 982.3 963.3
Местоположение метеостанции Киров (Кировская область, Россия): широта 58.60 долгота 49.63 высота над уровнем моря 158 м.
В архиве по умолчанию представлена погода в Кирове за последнюю неделю. Архивные данные за месяц целиком и за предыдущие месяцы, начиная с января 2011 года, Вы можете получить, выбрав интересующий диапазон дат из раскрывающегося списка и нажав кнопку "Найти!".
*Определитесь, кто Вы:
Внимание! Время в таблицах - всемирное. Для получения местного времени необходимо прибавить поправку, которая равна 3 ч.
Смотрите также архив погоды в соседних городах и на ближайших метеорологических станциях:
Партнеры нашего сайта:  
Тема форума:
Погода в доме всегда будет хорошая если будет много секса и любви, прям горячей, острой и главное взаимной, как нудисты, вот пример - https://tnt-porno.ru/cat24 в хорошую погоду нудисты выползают на пляже и не боятся никого, показывать любовь, секс и страсть, одобряя друг друга хорошей погодой отношений!    
Пояснения к столбцам:
  • Ветер - указаны скорость ветра в м/с - средняя за 10 мин, порывы в срок и между сроками (в фигурных скобках) и направление, откуда дует ветер: С - северный,
  • СВ - северо-восточный, В - восточный, ЮВ - юго-восточный, Ю - южный, ЮЗ - юго-западный, З - западный, СЗ - северо-западный.
  • Видимость - горизонтальная дальность видимости в метрах или километрах. При видимости от 1 до 10 км при отсутствии осадков обычно наблюдается дымка, при ухудшении видимости до 1 км и менее - туман. В сухую погоду видимость может ухудшаться дымом, пылью или мглою.
  • Явления - указаны атмосферные явления, наблюдавшиеся в срок или в последний час перед сроком; фигурными скобками обозначены явления, наблюдавшиеся между сроками (за 1-3 часа до срока); квадратными скобками обозначены град или гололедные отложения с указанием их диаметра в мм.
  • Облачность - указаны через наклонную черту общая и нижняя облачность в баллах и высота нижней границы облаков в метрах; квадратными скобками обозначены формы облаков: Ci - перистые, Cs - перисто-слоистые, Cc - перисто-кучевые, Ac - высококучевые, As - высокослоистые, Sc - слоисто-кучевые, Ns - слоисто-дождевые, Cu - кучевые, Cb - кучево-дождевые. Подробнее классификацию облаков см. в Атласе облаков (PDF).
  • T - Температура воздуха - температура, измеренная на высоте 2 м над землей.
  • Td - Температура точки росы - температура, при понижении до которой содержащийся в воздухе водяной пар достигнет насыщения.
  • f - Относительная влажность воздуха - влажноcть воздуха, измеренная на высоте 2 м над землей.
  • Te - Эффективная температура - температура, которую ощущает одетый по сезону человек в тени. Характеристика душности погоды. При расчете учитывается влияние влажности воздуха и скорости ветра на теплоощущения человека.
  • Tes - Эффективная температура на солнце - температура, которую ощущает человек, с поправкой на солнечный нагрев. Характеристика знойности погоды. Зависит от высоты солнца над горизонтом, облачности и скорости ветра. Ночью, в пасмурную погоду, а также при ветре 12 м/с и более поправка равна нулю.
  • P - Атмосферное давление - приведенное к уровню моря атмосферное давление.
  • Po - Атмосферное давление - измеренное на уровне метеостанции атмосферное давление.
  • Tmin - Минимальная температура - минимум температуры воздуха на высоте 2 м над землей.
  • Tmax - Максимальная температура - максимум температуры воздуха на высоте 2 м над землей.
  • R - Количество осадков - Количество выпавших осадков за период времени, мм. При наведении курсора мыши на число - период времени, за который выпало указанное количество осадков.
  • R24 - Количество осадков - Количество выпавших осадков за 24 часа, мм.
  • S - Снежный покров - Высота снежного покрова, см. При наведении курсора мыши на число - состояние снежного покрова и степень покрытия местности в баллах.